Weather History for Asheville, NC

Change the Weather History Date:

Friday, July 19, 2013

  Actual Average Record
Temperature  
Mean Temperature 77 °F 74 °F  
Max Temperature 86 °F 84 °F 95 °F (1939)
Min Temperature 67 °F 64 °F 52 °F (1925)
Degree Days  
Heating Degree Days 0 0  
Month to date heating degree days 0 0  
Since 1 June heating degree days 0 14  
Since 1 July heating degree days 0 0  
Cooling Degree Days 12 9  
Month to date cooling degree days 168 167  
Year to date cooling degree days 421 402  
Since 1 June cooling degree days 370 344  
Growing Degree Days 26 (Base 50)    
Moisture  
Dew Point 68 °F    
Average Humidity 76    
Maximum Humidity 100    
Minimum Humidity 51    
Precipitation  
Precipitation T in 0.13 in 2.40 in (1944)
Month to date precipitation 10.54 2.65  
Year to date precipitation 48.63 25.55  
Snow  
Snow 0.00 in 0.00 in 0.00 in ()
Month to date snowfall 0.0 0.0  
Since 1 June snowfall 0.0 0.0  
Since 1 July snowfall 0.0 0.0  
Snow Depth 0.00 in    
Sea Level Pressure  
Sea Level Pressure 30.14 in    
Wind  
Wind Speed 2 mph (SSW)    
Max Wind Speed 14 mph    
Max Gust Speed 17 mph    
Visibility 5 miles    
Events Fog , Rain    
T = Trace of Precipitation, MM = Missing Value Source: NWS Daily Summary

Daily Weather History Graph

Daily Weather History Graph

Search for Another Location

Airport:

Trip Planner

Search our weather history database for the weather conditions in past years. The results will help you decide how hot, cold, wet, or windy it might be!

Date:

Astronomy

Jul. 19, 2013 Rise Set
Actual Time 6:29 AM EDT 8:43 PM EDT
Civil Twilight 6:00 AM EDT 9:12 PM EDT
Nautical Twilight 5:24 AM EDT 9:47 PM EDT
Astronomical Twilight 4:46 AM EDT 10:25 PM EDT
Moon 5:44 PM EDT (7/19) 3:08 AM EDT (7/19)
Length of Visible Light 15h 11m
Length of Day
14h 14m
Waxing Gibbous, 86% of the Moon is Illuminated
Jul 19
Waxing Gibbous
Jul 22
Full
Jul 29
Last Quarter
Aug 6
New
Aug 14
First Quarter

Hourly Weather History & Observations

Time (EDT) Temp. Heat Index Dew Point Humidity Pressure Visibility Wind Dir Wind Speed Gust Speed Precip Events Conditions
12:54 AM 71.1 °F - 69.1 °F 93% 30.13 in 7.0 mi Calm Calm - N/A   Clear
1:15 AM 71.6 °F - 69.8 °F 94% 30.22 in 6.0 mi Calm Calm - N/A   Scattered Clouds
1:25 AM 71.6 °F - 69.8 °F 94% 30.22 in 5.0 mi Calm Calm - N/A   Mostly Cloudy
1:34 AM 71.6 °F - 69.8 °F 94% 30.21 in 6.0 mi Calm Calm - N/A   Scattered Clouds
1:54 AM 70.0 °F - 69.1 °F 97% 30.12 in 8.0 mi Calm Calm - N/A   Clear
2:54 AM 69.1 °F - 68.0 °F 96% 30.10 in 3.0 mi Calm Calm - N/A   Scattered Clouds
3:09 AM 69.8 °F - 69.8 °F 100% 30.19 in 2.5 mi Calm Calm - N/A   Mostly Cloudy
3:20 AM 69.8 °F - 69.8 °F 100% 30.19 in 1.8 mi Calm Calm - N/A   Mostly Cloudy
3:37 AM 69.8 °F - 68.0 °F 94% 30.18 in 1.2 mi Calm Calm - N/A   Overcast
3:43 AM 69.8 °F - 68.0 °F 94% 30.18 in 2.0 mi Calm Calm - N/A   Mostly Cloudy
3:51 AM 69.8 °F - 68.0 °F 94% 30.19 in 4.0 mi Calm Calm - N/A   Mostly Cloudy
3:54 AM 69.1 °F - 68.0 °F 96% 30.10 in 4.0 mi Calm Calm - N/A   Mostly Cloudy
4:06 AM 69.8 °F - 68.0 °F 94% 30.19 in 2.5 mi Calm Calm - N/A   Mostly Cloudy
4:10 AM 69.8 °F - 68.0 °F 94% 30.19 in 1.2 mi Calm Calm - N/A   Overcast
4:16 AM 69.8 °F - 68.0 °F 94% 30.18 in 0.8 mi Calm Calm - N/A   Overcast
4:21 AM 69.8 °F - 68.0 °F 94% 30.19 in 1.5 mi Calm Calm - N/A   Overcast
4:24 AM 69.8 °F - 68.0 °F 94% 30.19 in 3.0 mi Calm Calm - N/A   Overcast
4:54 AM 69.1 °F - 68.0 °F 96% 30.09 in 2.0 mi Calm Calm - N/A   Overcast
5:05 AM 68.0 °F - 68.0 °F 100% 30.18 in 1.2 mi Calm Calm - N/A   Overcast
5:20 AM 68.0 °F - 66.2 °F 94% 30.18 in 0.5 mi Calm Calm - N/A Fog Fog
5:54 AM 66.9 °F - 66.9 °F 100% 30.09 in 0.5 mi Calm Calm - N/A Fog Fog
6:13 AM 66.2 °F - 66.2 °F 100% 30.18 in 0.5 mi Calm Calm - N/A Fog Fog
6:46 AM 66.2 °F - 66.2 °F 100% 30.19 in 0.2 mi Calm Calm - N/A Fog Fog
6:54 AM 66.9 °F - 66.9 °F 100% 30.11 in 0.2 mi Calm Calm - N/A Fog Fog
7:15 AM 66.2 °F - 66.2 °F 100% 30.19 in 0.2 mi Calm Calm - N/A Fog Fog
7:54 AM 68.0 °F - 66.9 °F 96% 30.12 in 0.2 mi Calm Calm - N/A Fog Fog
8:20 AM 68.0 °F - 68.0 °F 100% 30.21 in 0.5 mi Calm Calm - N/A Fog Fog
8:45 AM 69.8 °F - 68.0 °F 94% 30.21 in 1.2 mi Calm Calm - N/A   Overcast
8:54 AM 69.1 °F - 69.1 °F 100% 30.13 in 1.8 mi Calm Calm - N/A   Overcast
9:01 AM 69.8 °F - 68.0 °F 94% 30.21 in 2.5 mi Variable 3.5 mph - N/A   Overcast
9:09 AM 69.8 °F - 68.0 °F 94% 30.21 in 3.0 mi Calm Calm - N/A   Overcast
9:16 AM 69.8 °F - 69.8 °F 100% 30.21 in 3.0 mi NNW 3.5 mph - N/A   Overcast
9:50 AM 73.4 °F - 69.8 °F 88% 30.21 in 5.0 mi Variable 3.5 mph - N/A   Overcast
9:54 AM 73.0 °F - 69.1 °F 87% 30.13 in 6.0 mi Calm Calm - N/A   Overcast
10:35 AM 73.4 °F - 69.8 °F 88% 30.22 in 5.0 mi WSW 3.5 mph - N/A   Haze
10:54 AM 75.9 °F - 69.1 °F 79% 30.13 in 6.0 mi Calm Calm - N/A   Haze
11:54 AM 81.0 °F 84.1 °F 69.1 °F 67% 30.12 in 10.0 mi North 4.6 mph - N/A   Partly Cloudy
12:54 PM 82.9 °F 85.4 °F 66.9 °F 58% 30.10 in 10.0 mi Calm Calm - N/A   Partly Cloudy
1:54 PM 82.9 °F 85.0 °F 66.0 °F 56% 30.07 in 10.0 mi Calm Calm - N/A   Partly Cloudy
2:54 PM 84.0 °F 86.5 °F 66.9 °F 56% 30.04 in 10.0 mi Variable 4.6 mph - N/A   Mostly Cloudy
3:54 PM 86.0 °F 88.2 °F 66.0 °F 51% 30.02 in 10.0 mi SSW 6.9 mph - N/A   Scattered Clouds
4:54 PM 84.9 °F 86.6 °F 64.9 °F 51% 30.01 in 10.0 mi Calm Calm - N/A   Clear
5:54 PM 82.9 °F 86.5 °F 69.1 °F 63% 30.01 in 10.0 mi SSE 9.2 mph - N/A   Overcast
6:54 PM 77.0 °F - 66.9 °F 71% 30.02 in 10.0 mi SW 5.8 mph - N/A   Clear
7:54 PM 75.9 °F - 69.1 °F 79% 30.03 in 10.0 mi South 5.8 mph - N/A   Clear
8:54 PM 75.0 °F - 69.1 °F 82% 30.04 in 10.0 mi South 4.6 mph - 0.00 in Rain Light Rain
9:54 PM 75.0 °F - 69.1 °F 82% 30.04 in 10.0 mi Calm Calm - 0.00 in Rain Light Rain
10:54 PM 73.0 °F - 69.1 °F 87% 30.06 in 10.0 mi Calm Calm - 0.00 in   Clear
11:54 PM 73.0 °F - 69.1 °F 87% 30.05 in 10.0 mi Calm Calm - N/A   Clear